Location: Newark
(12.4436°N, 0.6167°W)
Time: 04:57:55
(UTC+00:00)

Vanguard 1 - Pass Details

Date: 11 December 2019
Orbit: 651 x 3833 km, 34.2° (Epoch: 25 January)

Event Time Altitude Azimuth Distance (km) Brightness Sun altitude
Rises 13:06:10 0° 287° (WNW) 4,955 13.7 50.6°
Reaches altitude 10° 13:10:55 10° 274° (W) 3,393 13.2 50.1°
Maximum altitude 13:16:31 21° 228° (SW) 2,068 12.9 49.4°
Drops below altitude 10° 13:20:37 10° 179° (S) 2,370 12.8 48.9°
Sets 13:23:15 0° 161° (SSE) 3,107 13.0 48.6°
